Time,TemperatureF,DewpointF,PressureIn,WindDirection,WindDirectionDegrees,WindSpeedMPH,WindSpeedGustMPH,Humidity,HourlyPrecipIn,Conditions,Clouds,dailyrainin,SoftwareType,DateUTC
2013-06-14 00:01:00,54.8,53.4,29.57,NNE,18,1.0,5.0,95,0.03,,---,1.28,VWS V14.01,2013-06-14 04:01:00,
2013-06-14 00:06:00,54.7,53.6,29.57,NE,42,1.0,4.0,96,0.04,,---,0.01,VWS V14.01,2013-06-14 04:06:00,
2013-06-14 00:11:00,54.6,53.5,29.58,NE,49,2.0,4.0,96,0.05,,---,0.02,VWS V14.01,2013-06-14 04:11:00,
2013-06-14 00:16:00,54.6,53.5,29.58,NNE,32,1.0,4.0,96,0.07,,---,0.04,VWS V14.01,2013-06-14 04:16:00,
2013-06-14 00:21:00,54.5,53.4,29.58,NE,36,2.0,4.0,96,0.09,,---,0.06,VWS V14.01,2013-06-14 04:21:00,
2013-06-14 00:26:00,54.4,53.3,29.58,NE,51,1.0,4.0,96,0.10,,---,0.07,VWS V14.01,2013-06-14 04:26:00,
2013-06-14 00:31:00,54.3,53.2,29.58,NE,36,1.0,2.0,96,0.12,,---,0.09,VWS V14.01,2013-06-14 04:31:00,
2013-06-14 00:36:00,54.2,53.1,29.59,ENE,72,2.0,3.0,96,0.14,,---,0.11,VWS V14.01,2013-06-14 04:36:00,
2013-06-14 00:41:00,54.2,53.1,29.59,NNE,30,0.0,5.0,96,0.15,,---,0.12,VWS V14.01,2013-06-14 04:41:00,
2013-06-14 00:46:00,54.2,53.4,29.59,East,83,2.0,5.0,97,0.15,,---,0.12,VWS V14.01,2013-06-14 04:46:00,
2013-06-14 00:51:00,54.0,52.9,29.59,ENE,68,1.0,5.0,96,0.17,,---,0.14,VWS V14.01,2013-06-14 04:51:00,
2013-06-14 00:56:00,53.9,52.8,29.59,NE,44,1.0,5.0,96,0.18,,---,0.15,VWS V14.01,2013-06-14 04:56:00,
2013-06-14 01:01:00,53.9,53.1,29.59,NE,40,2.0,2.0,97,0.16,,---,0.16,VWS V14.01,2013-06-14 05:01:00,
2013-06-14 01:06:00,53.9,53.1,29.60,NE,53,1.0,3.0,97,0.18,,---,0.18,VWS V14.01,2013-06-14 05:06:00,
2013-06-14 01:11:00,53.9,53.1,29.60,ENE,60,1.0,3.0,97,0.19,,---,0.19,VWS V14.01,2013-06-14 05:11:00,
2013-06-14 01:16:00,53.8,53.0,29.60,NE,51,0.0,3.0,97,0.20,,---,0.20,VWS V14.01,2013-06-14 05:16:00,
2013-06-14 01:21:00,53.8,53.0,29.60,NE,44,1.0,3.0,97,0.21,,---,0.21,VWS V14.01,2013-06-14 05:21:00,
2013-06-14 01:26:00,53.7,52.9,29.60,ENE,67,1.0,3.0,97,0.22,,---,0.22,VWS V14.01,2013-06-14 05:26:00,
2013-06-14 01:31:00,53.7,52.9,29.61,NNE,30,0.0,1.0,97,0.14,,---,0.23,VWS V14.01,2013-06-14 05:31:00,
2013-06-14 01:36:00,53.6,52.8,29.61,NE,36,0.0,2.0,97,0.15,,---,0.24,VWS V14.01,2013-06-14 05:36:00,
2013-06-14 01:41:00,53.7,52.9,29.61,NNE,25,0.0,2.0,97,0.16,,---,0.25,VWS V14.01,2013-06-14 05:41:00,
2013-06-14 01:46:00,53.6,52.8,29.61,NE,39,0.0,2.0,97,0.17,,---,0.26,VWS V14.01,2013-06-14 05:46:00,
2013-06-14 01:51:00,53.6,52.8,29.61,NE,44,1.0,3.0,97,0.17,,---,0.26,VWS V14.01,2013-06-14 05:51:00,
2013-06-14 01:56:00,53.6,52.8,29.62,NNE,24,1.0,4.0,97,0.17,,---,0.26,VWS V14.01,2013-06-14 05:56:00,
2013-06-14 02:01:00,53.6,52.8,29.62,NE,50,1.0,2.0,97,0.11,,---,0.27,VWS V14.01,2013-06-14 06:01:00,
2013-06-14 02:06:00,53.6,52.8,29.62,North,349,3.0,3.0,97,0.11,,---,0.27,VWS V14.01,2013-06-14 06:06:00,
2013-06-14 02:11:00,53.6,52.8,29.62,NNE,23,1.0,3.0,97,0.11,,---,0.27,VWS V14.01,2013-06-14 06:11:00,
2013-06-14 02:16:00,53.5,52.7,29.62,North,9,2.0,3.0,97,0.12,,---,0.28,VWS V14.01,2013-06-14 06:16:00,
2013-06-14 02:21:00,53.6,52.8,29.62,NNE,30,1.0,4.0,97,0.12,,---,0.28,VWS V14.01,2013-06-14 06:21:00,
2013-06-14 02:26:00,53.6,52.8,29.62,NNE,28,0.0,4.0,97,0.13,,---,0.29,VWS V14.01,2013-06-14 06:26:00,
2013-06-14 02:31:00,53.6,52.8,29.62,NE,49,1.0,1.0,97,0.06,,---,0.29,VWS V14.01,2013-06-14 06:31:00,
2013-06-14 02:36:00,53.6,52.8,29.62,ENE,57,1.0,3.0,97,0.07,,---,0.30,VWS V14.01,2013-06-14 06:36:00,
2013-06-14 02:41:00,53.5,52.7,29.62,NNE,33,2.0,3.0,97,0.07,,---,0.30,VWS V14.01,2013-06-14 06:41:00,
2013-06-14 02:46:00,53.6,52.8,29.62,NNE,18,3.0,3.0,97,0.08,,---,0.31,VWS V14.01,2013-06-14 06:46:00,
2013-06-14 02:51:00,53.6,52.8,29.62,NE,47,1.0,5.0,97,0.08,,---,0.31,VWS V14.01,2013-06-14 06:51:00,
2013-06-14 02:56:00,53.6,52.5,29.62,NNE,13,4.0,5.0,96,0.09,,---,0.32,VWS V14.01,2013-06-14 06:56:00,
2013-06-14 03:01:00,53.6,52.5,29.62,NE,46,4.0,4.0,96,0.06,,---,0.33,VWS V14.01,2013-06-14 07:01:00,
2013-06-14 03:06:00,53.6,52.5,29.63,NNE,23,2.0,4.0,96,0.06,,---,0.33,VWS V14.01,2013-06-14 07:06:00,
2013-06-14 03:11:00,53.4,52.3,29.63,North,358,4.0,7.0,96,0.07,,---,0.34,VWS V14.01,2013-06-14 07:11:00,
2013-06-14 03:16:00,53.3,52.2,29.62,NE,53,2.0,7.0,96,0.08,,---,0.35,VWS V14.01,2013-06-14 07:16:00,
2013-06-14 03:21:00,53.2,51.8,29.62,ENE,59,2.0,7.0,95,0.09,,---,0.36,VWS V14.01,2013-06-14 07:21:00,
2013-06-14 03:26:00,53.0,51.9,29.62,NE,54,1.0,7.0,96,0.11,,---,0.38,VWS V14.01,2013-06-14 07:26:00,
2013-06-14 03:31:00,52.8,51.4,29.63,NNE,13,2.0,2.0,95,0.09,,---,0.38,VWS V14.01,2013-06-14 07:31:00,
2013-06-14 03:36:00,52.8,51.7,29.64,NE,53,1.0,6.0,96,0.10,,---,0.39,VWS V14.01,2013-06-14 07:36:00,
2013-06-14 03:41:00,52.7,51.6,29.63,NE,41,2.0,6.0,96,0.10,,---,0.39,VWS V14.01,2013-06-14 07:41:00,
2013-06-14 03:46:00,52.6,51.5,29.64,NNE,16,3.0,6.0,96,0.10,,---,0.39,VWS V14.01,2013-06-14 07:46:00,
2013-06-14 03:51:00,52.6,51.5,29.64,NNE,18,2.0,6.0,96,0.11,,---,0.40,VWS V14.01,2013-06-14 07:51:00,
2013-06-14 03:56:00,52.4,51.3,29.65,NNW,331,4.0,6.0,96,0.11,,---,0.40,VWS V14.01,2013-06-14 07:56:00,
2013-06-14 04:01:00,52.4,51.3,29.65,NNW,337,5.0,8.0,96,0.07,,---,0.40,VWS V14.01,2013-06-14 08:01:00,
2013-06-14 04:06:00,52.4,51.0,29.65,NW,323,3.0,8.0,95,0.08,,---,0.41,VWS V14.01,2013-06-14 08:06:00,
2013-06-14 04:11:00,52.3,50.9,29.66,NE,44,2.0,8.0,95,0.08,,---,0.41,VWS V14.01,2013-06-14 08:11:00,
2013-06-14 04:16:00,52.3,50.9,29.66,North,356,4.0,8.0,95,0.08,,---,0.41,VWS V14.01,2013-06-14 08:16:00,
2013-06-14 04:21:00,52.3,51.2,29.66,NNE,15,3.0,8.0,96,0.09,,---,0.42,VWS V14.01,2013-06-14 08:21:00,
2013-06-14 04:26:00,52.2,51.1,29.67,NE,56,2.0,8.0,96,0.09,,---,0.42,VWS V14.01,2013-06-14 08:26:00,
2013-06-14 04:31:00,52.3,51.2,29.67,NNE,12,1.0,2.0,96,0.04,,---,0.42,VWS V14.01,2013-06-14 08:31:00,
2013-06-14 04:36:00,52.3,51.2,29.66,NNE,20,2.0,5.0,96,0.04,,---,0.42,VWS V14.01,2013-06-14 08:36:00,
2013-06-14 04:41:00,52.5,51.4,29.66,NNE,20,2.0,5.0,96,0.04,,---,0.42,VWS V14.01,2013-06-14 08:41:00,
2013-06-14 04:46:00,52.4,51.3,29.66,NE,36,2.0,5.0,96,0.04,,---,0.42,VWS V14.01,2013-06-14 08:46:00,
2013-06-14 04:51:00,52.5,51.4,29.67,NNE,31,2.0,5.0,96,0.04,,---,0.42,VWS V14.01,2013-06-14 08:51:00,
2013-06-14 04:56:00,52.4,51.3,29.67,North,354,3.0,5.0,96,0.04,,---,0.42,VWS V14.01,2013-06-14 08:56:00,
2013-06-14 05:01:00,52.4,51.3,29.68,NE,48,2.0,2.0,96,0.02,,---,0.42,VWS V14.01,2013-06-14 09:01:00,
2013-06-14 05:06:00,52.4,51.3,29.68,North,1,3.0,6.0,96,0.02,,---,0.42,VWS V14.01,2013-06-14 09:06:00,
2013-06-14 05:11:00,52.4,51.0,29.68,NE,36,2.0,6.0,95,0.02,,---,0.42,VWS V14.01,2013-06-14 09:11:00,
2013-06-14 05:16:00,52.5,51.1,29.67,NNE,31,2.0,6.0,95,0.02,,---,0.42,VWS V14.01,2013-06-14 09:16:00,
2013-06-14 05:21:00,52.5,51.1,29.67,ENE,71,2.0,6.0,95,0.02,,---,0.42,VWS V14.01,2013-06-14 09:21:00,
2013-06-14 05:26:00,52.5,51.1,29.68,NNE,18,1.0,6.0,95,0.02,,---,0.42,VWS V14.01,2013-06-14 09:26:00,
2013-06-14 05:31:00,52.6,51.2,29.68,NE,49,1.0,1.0,95,0.00,,---,0.42,VWS V14.01,2013-06-14 09:31:00,
2013-06-14 05:36:00,52.6,50.9,29.68,NE,55,1.0,4.0,94,0.00,,---,0.42,VWS V14.01,2013-06-14 09:36:00,
2013-06-14 05:41:00,52.6,50.9,29.68,NE,44,1.0,4.0,94,0.00,,---,0.42,VWS V14.01,2013-06-14 09:41:00,
2013-06-14 05:46:00,52.8,51.1,29.69,NE,41,1.0,4.0,94,0.00,,---,0.42,VWS V14.01,2013-06-14 09:46:00,
2013-06-14 05:51:00,52.8,50.8,29.69,NNE,25,1.0,4.0,93,0.00,,---,0.42,VWS V14.01,2013-06-14 09:51:00,
2013-06-14 05:56:00,52.8,50.8,29.69,NNE,18,1.0,4.0,93,0.00,,---,0.42,VWS V14.01,2013-06-14 09:56:00,
2013-06-14 06:01:00,52.9,50.9,29.69,NNE,13,2.0,4.0,93,0.00,,---,0.42,VWS V14.01,2013-06-14 10:01:00,
2013-06-14 06:06:00,52.9,50.9,29.70,NNW,344,1.0,4.0,93,0.00,,---,0.42,VWS V14.01,2013-06-14 10:06:00,
2013-06-14 06:11:00,52.8,50.8,29.69,NNE,26,1.0,4.0,93,0.00,,---,0.42,VWS V14.01,2013-06-14 10:11:00,
2013-06-14 06:16:00,52.8,50.8,29.70,North,9,1.0,4.0,93,0.00,,---,0.42,VWS V14.01,2013-06-14 10:16:00,
2013-06-14 06:21:00,52.9,50.9,29.70,NE,44,1.0,4.0,93,0.00,,---,0.42,VWS V14.01,2013-06-14 10:21:00,
2013-06-14 06:26:00,52.9,50.9,29.71,NNW,343,2.0,4.0,93,0.00,,---,0.42,VWS V14.01,2013-06-14 10:26:00,
2013-06-14 06:31:00,52.9,50.9,29.71,NNW,343,2.0,2.0,93,0.00,,---,0.42,VWS V14.01,2013-06-14 10:31:00,
2013-06-14 06:36:00,53.0,51.0,29.72,NNE,27,1.0,2.0,93,0.00,,---,0.42,VWS V14.01,2013-06-14 10:36:00,
2013-06-14 06:41:00,53.2,50.9,29.72,ENE,58,0.0,3.0,92,0.00,,---,0.42,VWS V14.01,2013-06-14 10:41:00,
2013-06-14 06:46:00,53.3,51.0,29.72,NNE,24,2.0,3.0,92,0.00,,---,0.42,VWS V14.01,2013-06-14 10:46:00,
2013-06-14 06:51:00,53.5,50.9,29.72,NE,55,1.0,4.0,91,0.00,,---,0.42,VWS V14.01,2013-06-14 10:51:00,
2013-06-14 06:56:00,53.7,50.8,29.72,NNE,31,1.0,4.0,90,0.00,,---,0.42,VWS V14.01,2013-06-14 10:56:00,
2013-06-14 07:01:00,53.9,51.3,29.72,NNE,12,4.0,4.0,91,0.00,,---,0.42,VWS V14.01,2013-06-14 11:01:00,
2013-06-14 07:06:00,53.9,51.0,29.72,NE,34,1.0,4.0,90,0.00,,---,0.42,VWS V14.01,2013-06-14 11:06:00,
2013-06-14 07:11:00,54.0,50.8,29.72,NNE,18,2.0,4.0,89,0.00,,---,0.42,VWS V14.01,2013-06-14 11:11:00,
2013-06-14 07:16:00,54.1,50.9,29.72,NE,49,0.0,4.0,89,0.00,,---,0.42,VWS V14.01,2013-06-14 11:16:00,
2013-06-14 07:21:00,54.2,51.3,29.72,NNE,20,1.0,4.0,90,0.00,,---,0.42,VWS V14.01,2013-06-14 11:21:00,
2013-06-14 07:26:00,54.2,51.0,29.72,North,9,2.0,4.0,89,0.00,,---,0.42,VWS V14.01,2013-06-14 11:26:00,
2013-06-14 07:31:00,54.2,51.3,29.72,NE,56,1.0,2.0,90,0.00,,---,0.42,VWS V14.01,2013-06-14 11:31:00,
2013-06-14 07:36:00,54.3,51.4,29.73,NNE,19,1.0,2.0,90,0.00,,---,0.42,VWS V14.01,2013-06-14 11:36:00,
2013-06-14 07:41:00,54.3,51.4,29.73,NE,53,1.0,4.0,90,0.00,,---,0.42,VWS V14.01,2013-06-14 11:41:00,
2013-06-14 07:46:00,54.4,51.5,29.73,ENE,68,0.0,4.0,90,0.00,,---,0.42,VWS V14.01,2013-06-14 11:46:00,
2013-06-14 07:51:00,54.4,51.5,29.72,North,1,1.0,4.0,90,0.00,,---,0.42,VWS V14.01,2013-06-14 11:51:00,
2013-06-14 07:56:00,54.6,51.7,29.72,NE,49,1.0,4.0,90,0.00,,---,0.42,VWS V14.01,2013-06-14 11:56:00,
2013-06-14 08:01:00,54.7,51.8,29.73,NE,51,2.0,4.0,90,0.00,,---,0.42,VWS V14.01,2013-06-14 12:01:00,
2013-06-14 08:06:00,54.9,51.4,29.73,ENE,69,0.0,2.0,88,0.00,,---,0.42,VWS V14.01,2013-06-14 12:06:00,
2013-06-14 08:11:00,55.0,51.5,29.74,NNE,13,2.0,2.0,88,0.00,,---,0.42,VWS V14.01,2013-06-14 12:11:00,
2013-06-14 08:16:00,55.2,51.7,29.73,NNE,16,1.0,3.0,88,0.00,,---,0.42,VWS V14.01,2013-06-14 12:16:00,
2013-06-14 08:21:00,55.4,51.9,29.74,NNE,27,0.0,3.0,88,0.00,,---,0.42,VWS V14.01,2013-06-14 12:21:00,
2013-06-14 08:26:00,55.5,51.7,29.74,North,11,2.0,3.0,87,0.00,,---,0.42,VWS V14.01,2013-06-14 12:26:00,
2013-06-14 08:31:00,55.6,51.8,29.74,NNE,18,1.0,6.0,87,0.00,,---,0.42,VWS V14.01,2013-06-14 12:31:00,
2013-06-14 08:36:00,55.8,52.0,29.74,North,9,1.0,4.0,87,0.00,,---,0.42,VWS V14.01,2013-06-14 12:36:00,
2013-06-14 08:41:00,55.9,52.1,29.75,NW,319,2.0,4.0,87,0.00,,---,0.42,VWS V14.01,2013-06-14 12:41:00,
2013-06-14 08:46:00,56.0,52.2,29.75,NNE,31,0.0,4.0,87,0.00,,---,0.42,VWS V14.01,2013-06-14 12:46:00,
2013-06-14 08:51:00,56.1,52.0,29.75,NNE,19,1.0,4.0,86,0.00,,---,0.42,VWS V14.01,2013-06-14 12:51:00,
2013-06-14 08:56:00,56.2,52.4,29.75,NNE,13,1.0,4.0,87,0.00,,---,0.42,VWS V14.01,2013-06-14 12:56:00,
2013-06-14 09:01:00,56.3,52.5,29.75,NW,323,3.0,4.0,87,0.00,,---,0.42,VWS V14.01,2013-06-14 13:01:00,
2013-06-14 09:06:00,56.3,52.2,29.76,NNE,32,2.0,7.0,86,0.00,,---,0.42,VWS V14.01,2013-06-14 13:06:00,
2013-06-14 09:11:00,56.3,52.2,29.76,NNE,26,2.0,7.0,86,0.00,,---,0.42,VWS V14.01,2013-06-14 13:11:00,
2013-06-14 09:16:00,56.3,51.9,29.76,NNE,18,1.0,7.0,85,0.00,,---,0.42,VWS V14.01,2013-06-14 13:16:00,
2013-06-14 09:21:00,56.3,52.2,29.77,NNW,327,3.0,7.0,86,0.00,,---,0.42,VWS V14.01,2013-06-14 13:21:00,
2013-06-14 09:26:00,56.3,51.9,29.77,NNW,333,4.0,7.0,85,0.00,,---,0.42,VWS V14.01,2013-06-14 13:26:00,
2013-06-14 09:31:00,56.4,52.0,29.78,NNW,330,2.0,2.0,85,0.00,,---,0.42,VWS V14.01,2013-06-14 13:31:00,
2013-06-14 09:36:00,56.4,52.0,29.78,North,359,2.0,4.0,85,0.00,,---,0.42,VWS V14.01,2013-06-14 13:36:00,
2013-06-14 09:41:00,56.4,51.6,29.78,NNW,345,2.0,5.0,84,0.00,,---,0.42,VWS V14.01,2013-06-14 13:41:00,
2013-06-14 09:46:00,56.5,52.0,29.78,West,280,2.0,5.0,85,0.00,,---,0.42,VWS V14.01,2013-06-14 13:46:00,
2013-06-14 09:51:00,56.6,51.8,29.78,NW,325,3.0,6.0,84,0.00,,---,0.42,VWS V14.01,2013-06-14 13:51:00,
2013-06-14 09:56:00,56.7,51.9,29.78,NNE,28,0.0,6.0,84,0.00,,---,0.42,VWS V14.01,2013-06-14 13:56:00,
2013-06-14 10:01:00,56.9,52.1,29.79,NE,45,0.0,6.0,84,0.00,,---,0.42,VWS V14.01,2013-06-14 14:01:00,
2013-06-14 10:06:00,57.0,52.2,29.79,NNW,338,0.0,2.0,84,0.00,,---,0.42,VWS V14.01,2013-06-14 14:06:00,
2013-06-14 10:11:00,57.2,52.1,29.79,NE,44,0.0,2.0,83,0.00,,---,0.42,VWS V14.01,2013-06-14 14:11:00,
2013-06-14 10:16:00,57.4,52.3,29.79,WNW,298,5.0,6.0,83,0.00,,---,0.42,VWS V14.01,2013-06-14 14:16:00,
2013-06-14 10:21:00,57.6,52.5,29.79,NNE,16,1.0,6.0,83,0.00,,---,0.42,VWS V14.01,2013-06-14 14:21:00,
2013-06-14 10:26:00,57.7,52.2,29.79,NNW,332,2.0,6.0,82,0.00,,---,0.42,VWS V14.01,2013-06-14 14:26:00,
2013-06-14 10:31:00,57.9,52.5,29.80,NNE,22,2.0,2.0,82,0.00,,---,0.42,VWS V14.01,2013-06-14 14:31:00,
2013-06-14 10:36:00,58.3,53.2,29.80,NNW,334,0.0,2.0,83,0.00,,---,0.42,VWS V14.01,2013-06-14 14:36:00,
2013-06-14 10:41:00,58.7,53.2,29.80,NNW,335,0.0,2.0,82,0.00,,---,0.42,VWS V14.01,2013-06-14 14:41:00,
2013-06-14 10:46:00,59.1,52.9,29.80,North,4,2.0,2.0,80,0.00,,---,0.42,VWS V14.01,2013-06-14 14:46:00,
2013-06-14 10:51:00,59.5,53.7,29.80,NNE,13,1.0,2.0,81,0.00,,---,0.42,VWS V14.01,2013-06-14 14:51:00,
2013-06-14 10:56:00,59.7,52.5,29.80,West,267,3.0,6.0,77,0.00,,---,0.42,VWS V14.01,2013-06-14 14:56:00,
2013-06-14 11:01:00,60.0,52.8,29.80,NNE,26,2.0,7.0,77,0.00,,---,0.42,VWS V14.01,2013-06-14 15:01:00,
2013-06-14 11:06:00,60.4,53.5,29.80,NW,322,2.0,3.0,78,0.00,,---,0.42,VWS V14.01,2013-06-14 15:06:00,
2013-06-14 11:11:00,60.7,53.1,29.80,North,9,2.0,7.0,76,0.00,,---,0.42,VWS V14.01,2013-06-14 15:11:00,
2013-06-14 11:16:00,61.2,53.6,29.80,NNE,13,1.0,7.0,76,0.00,,---,0.42,VWS V14.01,2013-06-14 15:16:00,
2013-06-14 11:21:00,61.4,52.3,29.80,NW,307,3.0,7.0,72,0.00,,---,0.42,VWS V14.01,2013-06-14 15:21:00,
2013-06-14 11:26:00,61.6,52.1,29.80,NNE,13,3.0,7.0,71,0.00,,---,0.42,VWS V14.01,2013-06-14 15:26:00,
2013-06-14 11:31:00,62.1,53.3,29.80,WNW,290,4.0,7.0,73,0.00,,---,0.42,VWS V14.01,2013-06-14 15:31:00,
2013-06-14 11:36:00,62.5,53.7,29.80,West,278,2.0,5.0,73,0.00,,---,0.42,VWS V14.01,2013-06-14 15:36:00,
2013-06-14 11:41:00,63.4,51.4,29.80,West,276,3.0,5.0,65,0.00,,---,0.42,VWS V14.01,2013-06-14 15:41:00,
2013-06-14 11:46:00,63.8,53.5,29.80,NNE,20,1.0,5.0,69,0.00,,---,0.42,VWS V14.01,2013-06-14 15:46:00,
2013-06-14 11:51:00,63.9,51.9,29.80,NE,53,1.0,5.0,65,0.00,,---,0.42,VWS V14.01,2013-06-14 15:51:00,
2013-06-14 11:56:00,64.3,52.3,29.80,NNW,337,3.0,5.0,65,0.00,,---,0.42,VWS V14.01,2013-06-14 15:56:00,
2013-06-14 12:01:00,64.9,52.5,29.80,NNW,339,3.0,7.0,64,0.00,,---,0.42,VWS V14.01,2013-06-14 16:01:00,
2013-06-14 12:06:00,65.1,53.1,29.80,NE,47,2.0,4.0,65,0.00,,---,0.42,VWS V14.01,2013-06-14 16:06:00,
2013-06-14 12:11:00,65.1,52.6,29.80,WSW,253,3.0,7.0,64,0.00,,---,0.42,VWS V14.01,2013-06-14 16:11:00,
2013-06-14 12:16:00,65.1,53.1,29.80,West,274,1.0,7.0,65,0.00,,---,0.42,VWS V14.01,2013-06-14 16:16:00,
2013-06-14 12:21:00,65.2,53.2,29.80,WSW,256,0.0,7.0,65,0.00,,---,0.42,VWS V14.01,2013-06-14 16:21:00,
2013-06-14 12:26:00,65.7,53.6,29.80,SW,235,2.0,7.0,65,0.00,,---,0.42,VWS V14.01,2013-06-14 16:26:00,
2013-06-14 12:31:00,66.1,54.0,29.80,WSW,242,2.0,7.0,65,0.00,,---,0.42,VWS V14.01,2013-06-14 16:31:00,
2013-06-14 12:36:00,67.0,54.9,29.80,NNE,20,1.0,3.0,65,0.00,,---,0.42,VWS V14.01,2013-06-14 16:36:00,
2013-06-14 12:41:00,67.1,55.0,29.80,WSW,253,3.0,5.0,65,0.00,,---,0.42,VWS V14.01,2013-06-14 16:41:00,
2013-06-14 12:46:00,66.9,55.6,29.80,WNW,288,2.0,5.0,67,0.00,,---,0.42,VWS V14.01,2013-06-14 16:46:00,
2013-06-14 12:50:00,67.3,56.4,29.79,NNW,342,3.0,5.0,68,0.00,,---,0.42,VWS V14.01,2013-06-14 16:50:00,
2013-06-14 12:55:00,68.0,56.2,29.79,ESE,113,1.0,5.0,66,0.00,,---,0.42,VWS V14.01,2013-06-14 16:55:00,
2013-06-14 13:00:00,68.8,57.0,29.79,NE,43,3.0,5.0,66,0.00,,---,0.42,VWS V14.01,2013-06-14 17:00:00,
2013-06-14 13:05:00,69.1,57.3,29.79,North,6,1.0,4.0,66,0.00,,---,0.42,VWS V14.01,2013-06-14 17:05:00,
2013-06-14 13:10:00,69.6,56.5,29.79,WSW,249,2.0,4.0,63,0.00,,---,0.42,VWS V14.01,2013-06-14 17:10:00,
2013-06-14 13:15:00,69.9,56.3,29.79,West,271,1.0,4.0,62,0.00,,---,0.42,VWS V14.01,2013-06-14 17:15:00,
2013-06-14 13:20:00,70.0,58.5,29.79,SE,136,0.0,4.0,67,0.00,,---,0.42,VWS V14.01,2013-06-14 17:20:00,
2013-06-14 13:25:00,70.0,57.3,29.79,SE,135,0.0,4.0,64,0.00,,---,0.42,VWS V14.01,2013-06-14 17:25:00,
2013-06-14 13:30:00,69.8,57.1,29.79,NW,305,0.0,4.0,64,0.00,,---,0.42,VWS V14.01,2013-06-14 17:30:00,
2013-06-14 13:35:00,69.6,57.3,29.79,NW,305,0.0,0.0,65,0.00,,---,0.42,VWS V14.01,2013-06-14 17:35:00,
2013-06-14 13:40:00,70.0,57.7,29.79,NNE,21,0.0,0.0,65,0.00,,---,0.42,VWS V14.01,2013-06-14 17:40:00,
2013-06-14 13:45:00,70.8,57.6,29.79,NW,318,0.0,0.0,63,0.00,,---,0.42,VWS V14.01,2013-06-14 17:45:00,
2013-06-14 13:50:00,71.2,57.5,29.78,SE,131,1.0,1.0,62,0.00,,---,0.42,VWS V14.01,2013-06-14 17:50:00,
2013-06-14 13:55:00,71.1,57.9,29.78,NE,44,0.0,2.0,63,0.00,,---,0.42,VWS V14.01,2013-06-14 17:55:00,
2013-06-14 14:00:00,71.4,59.0,29.78,NE,45,0.0,2.0,65,0.00,,---,0.42,VWS V14.01,2013-06-14 18:00:00,
2013-06-14 14:05:00,72.1,58.8,29.78,ENE,60,1.0,2.0,63,0.00,,---,0.42,VWS V14.01,2013-06-14 18:05:00,
2013-06-14 14:10:00,72.6,58.4,29.78,NE,46,0.0,2.0,61,0.00,,---,0.42,VWS V14.01,2013-06-14 18:10:00,
2013-06-14 14:15:00,72.8,58.6,29.78,NE,48,2.0,2.0,61,0.00,,---,0.42,VWS V14.01,2013-06-14 18:15:00,
2013-06-14 14:20:00,72.1,57.5,29.78,NW,326,0.0,3.0,60,0.00,,---,0.42,VWS V14.01,2013-06-14 18:20:00,
2013-06-14 14:25:00,72.0,58.3,29.78,West,280,0.0,3.0,62,0.00,,---,0.42,VWS V14.01,2013-06-14 18:25:00,
2013-06-14 14:30:00,72.0,57.8,29.78,West,280,0.0,3.0,61,0.00,,---,0.42,VWS V14.01,2013-06-14 18:30:00,
2013-06-14 14:35:00,71.8,57.2,29.78,NNE,26,0.0,1.0,60,0.00,,---,0.42,VWS V14.01,2013-06-14 18:35:00,
2013-06-14 14:40:00,71.9,58.6,29.78,NNE,27,1.0,1.0,63,0.00,,---,0.42,VWS V14.01,2013-06-14 18:40:00,
2013-06-14 14:45:00,72.5,58.8,29.78,ENE,72,1.0,1.0,62,0.00,,---,0.42,VWS V14.01,2013-06-14 18:45:00,
2013-06-14 14:50:00,72.9,58.7,29.78,ENE,73,1.0,2.0,61,0.00,,---,0.42,VWS V14.01,2013-06-14 18:50:00,
2013-06-14 14:55:00,72.7,58.9,29.78,NNE,27,0.0,2.0,62,0.00,,---,0.42,VWS V14.01,2013-06-14 18:55:00,
2013-06-14 15:00:00,72.6,59.3,29.78,NNE,27,0.0,2.0,63,0.00,,---,0.42,VWS V14.01,2013-06-14 19:00:00,
2013-06-14 15:05:00,72.3,58.1,29.78,NNE,29,0.0,0.0,61,0.00,,---,0.42,VWS V14.01,2013-06-14 19:05:00,
2013-06-14 15:10:00,72.2,58.9,29.78,NNE,28,0.0,0.0,63,0.00,,---,0.42,VWS V14.01,2013-06-14 19:10:00,
2013-06-14 15:15:00,72.4,58.7,29.78,NNE,28,0.0,1.0,62,0.00,,---,0.42,VWS V14.01,2013-06-14 19:15:00,
2013-06-14 15:20:00,72.5,58.3,29.78,NNE,27,0.0,1.0,61,0.00,,---,0.42,VWS V14.01,2013-06-14 19:20:00,
2013-06-14 15:25:00,72.2,58.9,29.78,NNE,27,0.0,1.0,63,0.00,,---,0.42,VWS V14.01,2013-06-14 19:25:00,
2013-06-14 15:30:00,72.7,58.9,29.77,South,173,0.0,1.0,62,0.00,,---,0.42,VWS V14.01,2013-06-14 19:30:00,
2013-06-14 15:35:00,73.7,59.4,29.77,ENE,66,1.0,1.0,61,0.00,,---,0.42,VWS V14.01,2013-06-14 19:35:00,
2013-06-14 15:40:00,73.7,58.5,29.77,ENE,66,0.0,1.0,59,0.00,,---,0.42,VWS V14.01,2013-06-14 19:40:00,
2013-06-14 15:45:00,73.4,58.2,29.78,ENE,65,0.0,1.0,59,0.00,,---,0.42,VWS V14.01,2013-06-14 19:45:00,
2013-06-14 15:50:00,72.3,59.9,29.78,WNW,303,1.0,2.0,65,0.00,,---,0.42,VWS V14.01,2013-06-14 19:50:00,
2013-06-14 15:55:00,72.0,57.8,29.78,NNE,18,2.0,4.0,61,0.00,,---,0.42,VWS V14.01,2013-06-14 19:55:00,
2013-06-14 16:00:00,72.0,57.4,29.78,North,349,2.0,4.0,60,0.00,,---,0.42,VWS V14.01,2013-06-14 20:00:00,
2013-06-14 16:05:00,71.9,55.9,29.78,NNW,335,3.0,5.0,57,0.00,,---,0.42,VWS V14.01,2013-06-14 20:05:00,
2013-06-14 16:10:00,71.4,55.4,29.78,North,10,1.0,5.0,57,0.00,,---,0.42,VWS V14.01,2013-06-14 20:10:00,
2013-06-14 16:15:00,71.0,56.9,29.78,North,355,2.0,5.0,61,0.00,,---,0.42,VWS V14.01,2013-06-14 20:15:00,
2013-06-14 16:20:00,70.2,57.0,29.79,NE,37,2.0,7.0,63,0.00,,---,0.42,VWS V14.01,2013-06-14 20:20:00,
2013-06-14 16:25:00,69.2,57.8,29.79,NNW,337,4.0,7.0,67,0.00,,---,0.42,VWS V14.01,2013-06-14 20:25:00,
2013-06-14 16:30:00,68.6,58.0,29.79,NNE,18,1.0,7.0,69,0.00,,---,0.42,VWS V14.01,2013-06-14 20:30:00,
2013-06-14 16:35:00,68.1,58.3,29.79,NW,308,3.0,4.0,71,0.00,,---,0.42,VWS V14.01,2013-06-14 20:35:00,
2013-06-14 16:40:00,67.6,58.3,29.80,North,4,2.0,8.0,72,0.00,,---,0.42,VWS V14.01,2013-06-14 20:40:00,
2013-06-14 16:45:00,67.1,58.2,29.80,North,349,3.0,8.0,73,0.00,,---,0.42,VWS V14.01,2013-06-14 20:45:00,
2013-06-14 16:50:00,66.9,57.6,29.80,NNW,343,4.0,8.0,72,0.00,,---,0.42,VWS V14.01,2013-06-14 20:50:00,
2013-06-14 16:55:00,67.0,57.7,29.79,NW,319,3.0,8.0,72,0.00,,---,0.42,VWS V14.01,2013-06-14 20:55:00,
2013-06-14 17:00:00,67.2,57.9,29.80,NNW,337,3.0,8.0,72,0.00,,---,0.42,VWS V14.01,2013-06-14 21:00:00,
2013-06-14 17:05:00,67.2,57.9,29.80,North,349,2.0,5.0,72,0.00,,---,0.42,VWS V14.01,2013-06-14 21:05:00,
2013-06-14 17:10:00,67.1,57.8,29.80,NNW,340,2.0,5.0,72,0.00,,---,0.42,VWS V14.01,2013-06-14 21:10:00,
2013-06-14 17:15:00,67.0,58.5,29.80,NW,307,4.0,5.0,74,0.00,,---,0.42,VWS V14.01,2013-06-14 21:15:00,
2013-06-14 17:20:00,66.8,57.9,29.81,NW,323,4.0,5.0,73,0.00,,---,0.42,VWS V14.01,2013-06-14 21:20:00,
2013-06-14 17:25:00,66.4,58.2,29.81,NW,321,3.0,5.0,75,0.00,,---,0.42,VWS V14.01,2013-06-14 21:25:00,
2013-06-14 17:30:00,66.2,58.8,29.82,NNW,343,1.0,6.0,77,0.00,,---,0.42,VWS V14.01,2013-06-14 21:30:00,
2013-06-14 17:35:00,65.9,58.9,29.82,NNW,338,2.0,5.0,78,0.00,,---,0.42,VWS V14.01,2013-06-14 21:35:00,
2013-06-14 17:40:00,65.7,57.9,29.82,NNW,337,3.0,5.0,76,0.00,,---,0.42,VWS V14.01,2013-06-14 21:40:00,
2013-06-14 17:45:00,65.5,56.6,29.82,NW,308,6.0,11.0,73,0.00,,---,0.42,VWS V14.01,2013-06-14 21:45:00,
2013-06-14 17:50:00,65.1,57.4,29.82,West,280,5.0,11.0,76,0.00,,---,0.42,VWS V14.01,2013-06-14 21:50:00,
2013-06-14 17:55:00,64.5,56.4,29.82,NNW,333,3.0,11.0,75,0.00,,---,0.42,VWS V14.01,2013-06-14 21:55:00,
2013-06-14 18:00:00,63.9,56.9,29.81,WNW,300,3.0,11.0,78,0.00,,---,0.42,VWS V14.01,2013-06-14 22:00:00,
2013-06-14 18:05:00,63.5,56.2,29.82,NW,325,3.0,4.0,77,0.00,,---,0.42,VWS V14.01,2013-06-14 22:05:00,
2013-06-14 18:10:00,63.4,56.4,29.81,NNW,332,3.0,4.0,78,0.00,,---,0.42,VWS V14.01,2013-06-14 22:10:00,
2013-06-14 18:15:00,63.6,55.9,29.81,NNW,339,2.0,5.0,76,0.00,,---,0.42,VWS V14.01,2013-06-14 22:15:00,
2013-06-14 18:20:00,63.7,56.0,29.81,NW,322,5.0,5.0,76,0.00,,---,0.42,VWS V14.01,2013-06-14 22:20:00,
2013-06-14 18:25:00,63.8,55.7,29.82,NW,316,4.0,8.0,75,0.00,,---,0.42,VWS V14.01,2013-06-14 22:25:00,
2013-06-14 18:30:00,64.1,55.3,29.82,NNW,340,3.0,8.0,73,0.00,,---,0.42,VWS V14.01,2013-06-14 22:30:00,
2013-06-14 18:35:00,64.5,56.0,29.82,NNW,345,4.0,5.0,74,0.00,,---,0.42,VWS V14.01,2013-06-14 22:35:00,
2013-06-14 18:40:00,64.7,56.2,29.82,NNW,347,2.0,7.0,74,0.00,,---,0.42,VWS V14.01,2013-06-14 22:40:00,
2013-06-14 18:45:00,64.9,55.7,29.82,NNW,345,3.0,7.0,72,0.00,,---,0.42,VWS V14.01,2013-06-14 22:45:00,
2013-06-14 18:50:00,65.1,55.5,29.82,NNE,13,3.0,7.0,71,0.00,,---,0.42,VWS V14.01,2013-06-14 22:50:00,
2013-06-14 18:55:00,65.1,55.9,29.83,NNE,15,2.0,7.0,72,0.00,,---,0.42,VWS V14.01,2013-06-14 22:55:00,
2013-06-14 19:00:00,65.1,55.9,29.83,NNW,333,3.0,7.0,72,0.00,,---,0.42,VWS V14.01,2013-06-14 23:00:00,
2013-06-14 19:05:00,65.1,55.5,29.83,North,358,3.0,6.0,71,0.00,,---,0.42,VWS V14.01,2013-06-14 23:05:00,
2013-06-14 19:10:00,65.1,55.5,29.84,NNW,338,3.0,6.0,71,0.00,,---,0.42,VWS V14.01,2013-06-14 23:10:00,
2013-06-14 19:15:00,64.9,55.7,29.84,NNE,23,3.0,6.0,72,0.00,,---,0.42,VWS V14.01,2013-06-14 23:15:00,
2013-06-14 19:20:00,64.7,55.9,29.84,NW,316,5.0,6.0,73,0.00,,---,0.42,VWS V14.01,2013-06-14 23:20:00,
2013-06-14 19:25:00,64.6,55.8,29.84,NW,325,2.0,8.0,73,0.00,,---,0.42,VWS V14.01,2013-06-14 23:25:00,
2013-06-14 19:30:00,64.5,55.7,29.84,NW,317,3.0,8.0,73,0.00,,---,0.42,VWS V14.01,2013-06-14 23:30:00,
2013-06-14 19:35:00,64.7,55.9,29.84,West,280,3.0,6.0,73,0.00,,---,0.42,VWS V14.01,2013-06-14 23:35:00,
2013-06-14 19:40:00,65.0,55.8,29.84,NW,304,3.0,6.0,72,0.00,,---,0.42,VWS V14.01,2013-06-14 23:40:00,
2013-06-14 19:45:00,65.1,56.2,29.84,NNW,328,2.0,6.0,73,0.00,,---,0.42,VWS V14.01,2013-06-14 23:45:00,
2013-06-14 19:50:00,64.9,56.0,29.84,NW,320,3.0,6.0,73,0.00,,---,0.42,VWS V14.01,2013-06-14 23:50:00,
2013-06-14 19:55:00,64.7,56.2,29.84,NW,326,2.0,6.0,74,0.00,,---,0.42,VWS V14.01,2013-06-14 23:55:00,
2013-06-14 20:00:00,64.3,56.6,29.84,NW,319,2.0,6.0,76,0.00,,---,0.42,VWS V14.01,2013-06-15 00:00:00,
2013-06-14 20:05:00,64.0,56.3,29.84,NW,321,2.0,3.0,76,0.00,,---,0.42,VWS V14.01,2013-06-15 00:05:00,
2013-06-14 20:10:00,63.8,56.1,29.84,NW,316,3.0,3.0,76,0.00,,---,0.42,VWS V14.01,2013-06-15 00:10:00,
2013-06-14 20:15:00,63.8,56.1,29.84,NW,319,2.0,3.0,76,0.00,,---,0.42,VWS V14.01,2013-06-15 00:15:00,
2013-06-14 20:20:00,63.7,56.0,29.84,NW,323,2.0,3.0,76,0.00,,---,0.42,VWS V14.01,2013-06-15 00:20:00,
2013-06-14 20:25:00,63.5,56.2,29.84,NNW,328,2.0,3.0,77,0.00,,---,0.42,VWS V14.01,2013-06-15 00:25:00,
2013-06-14 20:30:00,63.3,56.0,29.85,NW,325,2.0,3.0,77,0.00,,---,0.42,VWS V14.01,2013-06-15 00:30:00,
2013-06-14 20:35:00,63.3,56.3,29.84,NW,319,2.0,3.0,78,0.00,,---,0.42,VWS V14.01,2013-06-15 00:35:00,
2013-06-14 20:40:00,63.2,56.2,29.84,NW,316,2.0,3.0,78,0.00,,---,0.42,VWS V14.01,2013-06-15 00:40:00,
2013-06-14 20:45:00,63.2,56.2,29.85,NNW,340,2.0,4.0,78,0.00,,---,0.42,VWS V14.01,2013-06-15 00:45:00,
2013-06-14 20:50:00,63.2,56.2,29.85,NNW,327,2.0,4.0,78,0.00,,---,0.42,VWS V14.01,2013-06-15 00:50:00,
2013-06-14 20:55:00,63.4,56.4,29.85,NW,326,2.0,4.0,78,0.00,,---,0.42,VWS V14.01,2013-06-15 00:55:00,
2013-06-14 21:00:00,63.4,56.4,29.85,NW,314,3.0,4.0,78,0.00,,---,0.42,VWS V14.01,2013-06-15 01:00:00,
2013-06-14 21:05:00,63.4,56.4,29.85,NW,316,3.0,4.0,78,0.00,,---,0.42,VWS V14.01,2013-06-15 01:05:00,
2013-06-14 21:10:00,63.4,56.4,29.86,NNW,332,4.0,4.0,78,0.00,,---,0.42,VWS V14.01,2013-06-15 01:10:00,
2013-06-14 21:15:00,63.3,56.3,29.86,NW,315,4.0,5.0,78,0.00,,---,0.42,VWS V14.01,2013-06-15 01:15:00,
2013-06-14 21:20:00,63.6,56.6,29.86,NNW,345,4.0,7.0,78,0.00,,---,0.42,VWS V14.01,2013-06-15 01:20:00,
2013-06-14 21:25:00,63.8,56.5,29.87,NW,313,4.0,7.0,77,0.00,,---,0.42,VWS V14.01,2013-06-15 01:25:00,
2013-06-14 21:30:00,64.0,57.0,29.87,NW,308,4.0,7.0,78,0.00,,---,0.42,VWS V14.01,2013-06-15 01:30:00,
2013-06-14 21:35:00,64.0,56.7,29.87,NW,326,3.0,6.0,77,0.00,,---,0.42,VWS V14.01,2013-06-15 01:35:00,
2013-06-14 21:40:00,64.0,56.7,29.87,NNW,348,3.0,6.0,77,0.00,,---,0.42,VWS V14.01,2013-06-15 01:40:00,
2013-06-14 21:45:00,63.9,56.9,29.87,NNW,335,2.0,6.0,78,0.00,,---,0.42,VWS V14.01,2013-06-15 01:45:00,
2013-06-14 21:50:00,63.9,56.6,29.88,NW,318,4.0,6.0,77,0.00,,---,0.42,VWS V14.01,2013-06-15 01:50:00,
2013-06-14 21:55:00,63.8,56.8,29.88,NNW,335,2.0,6.0,78,0.00,,---,0.42,VWS V14.01,2013-06-15 01:55:00,
2013-06-14 22:00:00,63.8,56.8,29.88,NNW,328,3.0,6.0,78,0.00,,---,0.42,VWS V14.01,2013-06-15 02:00:00,
2013-06-14 22:05:00,63.8,56.8,29.88,NNW,337,2.0,4.0,78,0.00,,---,0.42,VWS V14.01,2013-06-15 02:05:00,
2013-06-14 22:10:00,63.7,56.7,29.88,NW,326,2.0,4.0,78,0.00,,---,0.42,VWS V14.01,2013-06-15 02:10:00,
2013-06-14 22:15:00,63.6,56.6,29.88,NW,317,3.0,4.0,78,0.00,,---,0.42,VWS V14.01,2013-06-15 02:15:00,
2013-06-14 22:20:00,63.5,56.5,29.88,NW,311,2.0,4.0,78,0.00,,---,0.42,VWS V14.01,2013-06-15 02:20:00,
2013-06-14 22:25:00,63.3,56.7,29.89,WNW,297,3.0,4.0,79,0.00,,---,0.42,VWS V14.01,2013-06-15 02:25:00,
2013-06-14 22:30:00,63.2,56.6,29.89,NNW,335,2.0,4.0,79,0.00,,---,0.42,VWS V14.01,2013-06-15 02:30:00,
2013-06-14 22:35:00,63.2,56.6,29.89,NW,314,2.0,4.0,79,0.00,,---,0.42,VWS V14.01,2013-06-15 02:35:00,
2013-06-14 22:40:00,63.0,56.4,29.89,NW,319,2.0,4.0,79,0.00,,---,0.42,VWS V14.01,2013-06-15 02:40:00,
2013-06-14 22:45:00,63.0,56.7,29.89,NW,326,1.0,4.0,80,0.00,,---,0.42,VWS V14.01,2013-06-15 02:45:00,
2013-06-14 22:50:00,62.7,56.5,29.89,NW,315,2.0,4.0,80,0.00,,---,0.42,VWS V14.01,2013-06-15 02:50:00,
2013-06-14 22:55:00,62.5,56.2,29.89,NNW,332,1.0,4.0,80,0.00,,---,0.42,VWS V14.01,2013-06-15 02:55:00,
2013-06-14 23:00:00,62.4,56.5,29.89,NNW,335,1.0,4.0,81,0.00,,---,0.42,VWS V14.01,2013-06-15 03:00:00,
2013-06-14 23:05:00,62.5,56.6,29.89,NNW,327,2.0,3.0,81,0.00,,---,0.42,VWS V14.01,2013-06-15 03:05:00,
2013-06-14 23:10:00,63.0,56.7,29.89,NW,320,2.0,3.0,80,0.00,,---,0.42,VWS V14.01,2013-06-15 03:10:00,
2013-06-14 23:15:00,63.2,57.3,29.89,NW,312,2.0,3.0,81,0.00,,---,0.42,VWS V14.01,2013-06-15 03:15:00,
2013-06-14 23:20:00,63.2,56.9,29.89,NW,312,1.0,5.0,80,0.00,,---,0.42,VWS V14.01,2013-06-15 03:20:00,
2013-06-14 23:25:00,63.3,56.7,29.89,NW,320,2.0,5.0,79,0.00,,---,0.42,VWS V14.01,2013-06-15 03:25:00,
2013-06-14 23:30:00,63.5,56.9,29.89,NW,319,2.0,5.0,79,0.00,,---,0.42,VWS V14.01,2013-06-15 03:30:00,
2013-06-14 23:35:00,63.4,57.1,29.89,NW,309,2.0,3.0,80,0.00,,---,0.42,VWS V14.01,2013-06-15 03:35:00,
2013-06-14 23:40:00,63.3,56.7,29.89,NW,318,0.0,3.0,79,0.00,,---,0.42,VWS V14.01,2013-06-15 03:40:00,
2013-06-14 23:45:00,63.3,57.0,29.89,WNW,291,1.0,3.0,80,0.00,,---,0.42,VWS V14.01,2013-06-15 03:45:00,
2013-06-14 23:50:00,63.0,57.1,29.90,NW,312,1.0,3.0,81,0.00,,---,0.42,VWS V14.01,2013-06-15 03:50:00,
2013-06-14 23:55:00,62.7,57.1,29.90,WNW,302,2.0,3.0,82,0.00,,---,0.42,VWS V14.01,2013-06-15 03:55:00,